Bornholm Airport

Airport
ICAO code: 
EKRN
IATA Code: 
RNN
Summary
ICAO Region: 
EUR
Territory: 
Location: 
Rønne, Bornholm, Hovedstaden
Serving: 
Bornholm
Elevation: 
52 ft
Coordinates: 
Aerial View: 
55° 3' 47.186" N, 14° 45' 36.691" E
Metar
Observation
EKRN 240720Z AUTO 26010KT 0350 R11/0650N R29/0800N FG VV002 04/04 Q1031
Station
Roenne
Date/Time
2022-01-24 07:20:00
Wind direction
260°
Wind speed
10 kts
Lowest cloud amount
n/a
Temperature
11°C
Dew point
0°C
Humidity
46%
QNH
1031 hPa
Weather condition
n/a

Description

Bornholm Airport is a Danish airport located 5 km southeast of Rønne, on the island of Bornholm.

Runways

Designator Length Width Surface Rops
11/29 2002 45 ASP No/No
Airport map: 
Aerial View: 

Accidents and Serious Incidents at or in the vicinity of EKRN

SKYbrary Partners:

Safety knowledge contributed by: